Location: Berchem-Saint-Laurent
(50.7879°N, 4.1977°E)
Time: 13:04:43
(UTC+00:00)

Daily predictions for brighter satellites

Satellite Brightness Start Highest point End
(mag) Time Altitude Azimuth Time Altitude Azimuth Time Altitude Azimuth
Cosmos 2219 3.2 16:51:27 10° SSW 16:57:03 73° ESE 17:02:43 10° NNE
Starlink AK 3.0 16:57:26 10° WNW 17:00:18 52° N 17:03:12 10° E
YAOGAN 1 3.7 16:57:00 10° ESE 17:00:22 22° ENE 17:03:43 10° N
Starlink AL 3.0 16:57:41 10° WNW 17:00:33 52° N 17:03:26 10° E
Starlink D 3.2 16:57:21 10° W 17:00:33 55° N 17:03:46 10° E
Starlink AD 3.0 16:57:54 10° WNW 17:00:47 52° N 17:03:40 10° E
Cosmos 2297 Rocket 2.4 16:55:28 10° S 17:01:00 58° ESE 17:06:33 10° NE
Starlink Y 3.0 16:58:21 10° WNW 17:01:14 52° N 17:04:06 10° E
Starlink AG 3.0 16:58:34 10° WNW 17:01:27 52° N 17:04:19 10° E
Starlink W 3.1 16:58:43 10° WNW 17:01:38 52° N 17:04:32 10° E
Starlink AJ 3.0 16:59:00 10° WNW 17:01:53 52° N 17:04:46 10° E
USA 234 3.4 16:55:24 10° ESE 17:01:58 88° SSW 17:08:32 10° WNW
Starlink AM 3.0 16:59:28 10° WNW 17:02:21 52° N 17:05:14 10° E
Starlink AP 3.0 16:59:41 10° WNW 17:02:34 52° N 17:05:27 10° E
Starlink S 3.2 16:59:33 10° WNW 17:02:46 55° N 17:05:58 10° E
Starlink AA 3.0 16:59:56 10° WNW 17:02:49 52° N 17:05:41 10° E
Starlink AF 3.0 17:00:07 10° WNW 17:03:00 52° N 17:05:53 10° E
Starlink AB 3.0 17:00:22 10° WNW 17:03:15 52° N 17:06:08 10° E
Starlink AN 3.0 17:00:35 10° WNW 17:03:28 52° N 17:06:21 10° E
Starlink C 3.2 17:01:42 10° WNW 17:04:55 55° N 17:08:08 10° E
Starlink E 3.2 17:03:56 10° WNW 17:07:08 55° N 17:10:21 10° E
Starlink J 3.2 17:06:09 10° WNW 17:09:22 55° N 17:12:35 10° E
YAOGAN 6 2.9 17:07:11 10° SE 17:10:40 42° ENE 17:14:08 10° N
H-2A R/B 3.2 17:07:35 10° S 17:11:27 70° W 17:15:22 10° NNW
Starlink V 3.2 17:08:21 10° WNW 17:11:34 56° N 17:14:43 10° E
ERBS 2.5 17:10:06 10° WSW 17:13:25 65° NNW 17:16:39 11° NE
Starlink H 3.2 17:10:35 10° WNW 17:13:48 56° N 17:16:52 11° E
Cosmos 2227 Rocket 2.3 17:08:48 10° SSW 17:14:23 66° ESE 17:20:00 10° NE
IRS-1C Rocket 4.4 17:09:48 10° SSE 17:15:04 77° WSW 17:20:22 10° NNW
Starlink F 3.2 17:12:50 10° WNW 17:16:03 56° N 17:19:01 12° E
Cosmos 1602 Rocket 4.2 17:11:48 10° SSW 17:16:06 60° WNW 17:20:25 10° N
NOAA 12 4.1 17:12:17 10° SSE 17:17:31 83° ENE 17:22:48 10° NNW
Starlink G 3.2 17:15:03 10° WNW 17:18:16 57° N 17:21:10 12° E
Cosmos 2341 Rocket 4.0 17:12:47 10° S 17:19:06 71° E 17:25:25 10° NNE
SMAP 3.6 17:15:30 10° S 17:20:07 64° WSW 17:24:46 10° NNW
Starlink L 3.2 17:17:17 10° WNW 17:20:31 57° N 17:23:18 13° E
Starlink A 3.2 17:19:31 10° WNW 17:22:45 57° N 17:25:28 14° E
PSLV R/B 4.1 17:20:22 10° NNE 17:24:28 76° WNW 17:28:34 10° SSW
Starlink R 3.2 17:21:46 10° WNW 17:25:00 58° N 17:27:37 14° E
Cosmos 1626 3.9 17:23:35 10° SW 17:26:58 33° WNW 17:30:24 10° N
Starlink K 3.2 17:23:59 10° WNW 17:27:13 58° N 17:29:46 15° E
Cosmos 1943 3.9 17:22:52 10° NNW 17:27:54 32° NE 17:32:55 10° ESE
Starlink M 3.2 17:26:12 10° WNW 17:29:27 59° N 17:31:53 16° E
Cosmos 1339 Rocket 4.4 17:23:27 10° N 17:29:33 71° ENE 17:35:41 10° SSE
Cosmos 1953 Rocket 3.7 17:25:43 10° S 17:30:06 56° E 17:34:30 10° NNE
CZ-4B R/B 4.1 17:28:21 10° NNW 17:30:07 15° WNW 17:31:54 10° W
Iridium 96 3.4 17:28:30 10° N 17:30:56 78° E 17:33:29 10° S
COSMO-SKYMED 1 3.0 17:27:08 10° NNE 17:31:15 40° E 17:35:22 10° SSE
Cosmos 1328 4.1 17:27:47 10° SSE 17:31:37 45° E 17:35:28 10° NNE
Cosmos 1842 Rocket 4.2 17:27:37 10° N 17:31:43 34° ENE 17:35:48 10° SE
Meteor 1-21 Rocket 4.3 17:28:06 10° S 17:33:46 87° E 17:39:35 10° NNE
CZ-4 R/B 1.6 17:29:55 10° SE 17:33:54 51° ENE 17:37:58 10° N
Cosmos 1758 Rocket 3.6 17:29:48 10° S 17:34:06 84° W 17:38:28 10° N
Starlink AR 2.6 17:32:54 10° WNW 17:35:32 58° N 17:37:04 21° E
FengYun 1-2 T 4.2 17:31:35 10° SSE 17:37:14 80° ENE 17:42:56 10° NNW
ATLAS CENTAUR R/B 1.3 17:33:30 10° NW 17:37:37 78° SW 17:41:24 10° SE
Cosmos 2218 Rocket 4.0 17:34:58 10° S 17:41:15 65° E 17:47:36 10° NNE
Cosmos 1140 Rocket 4.5 17:38:33 10° N 17:42:59 26° NE 17:46:04 16° E
CSL-04 Debris 4.2 17:37:51 10° SE 17:43:05 55° ENE 17:48:23 10° N
Shenzhou-11 Module 4.2 17:45:45 10° SW 17:47:28 15° S 17:49:10 10° SE
SL-8 R/B 4.0 17:42:51 10° WSW 17:47:35 57° SSE 17:50:52 19° E
Cosmos 2251 Rocket 3.7 17:43:55 10° NNW 17:49:15 78° WSW 17:54:34 10° SSE
Cosmos 1959 Rocket 4.4 17:43:58 10° S 17:50:04 72° E 17:56:10 10° NNE
USA 116 4.0 17:53:21 28° E 17:53:42 28° E 17:56:27 10° SSE
SKYMED 3 4.5 17:50:54 10° NNE 17:55:16 69° ESE 17:59:35 10° S
Cosmos 1703 3.2 17:52:23 10° S 17:56:21 80° E 18:00:21 10° NNE
Cosmos 1825 Rocket 4.2 17:52:08 10° SSW 17:56:24 58° WNW 18:00:41 10° N
H-2A R/B 3.1 17:55:39 21° ENE 17:56:38 22° ENE 18:00:34 10° N
ATLAS 5 CENTAUR R/B 3.6 17:56:30 10° NW 18:00:09 21° N 18:03:10 14° NE
Cosmos 1356 Rocket 3.3 17:56:16 10° NNW 18:00:21 84° ENE 18:04:29 10° SSE
Envisat 4.1 17:57:00 10° S 18:01:53 47° W 18:06:48 10° NNW
Cosmos 1455 3.4 17:58:19 10° NNW 18:01:58 45° W 18:05:35 10° SSW
CSL-04 Rocket 3.6 17:56:43 10° SSE 18:02:14 75° ENE 18:07:49 10° NNW
Cosmos 2221 2.6 17:58:46 10° N 18:02:57 49° ENE 18:07:07 10° SSE
Cosmos 2366 rocket 4.0 18:01:51 10° S 18:08:06 90° WSW 18:14:29 10° N
USA 267 3.3 18:03:50 19° ENE 18:08:46 84° NNW 18:15:19 10° WSW
Starlink T 2.8 18:08:00 10° WNW 18:11:13 77° NNE 18:11:56 50° E
Starlink N 2.8 18:10:01 10° WNW 18:13:14 78° NNE 18:13:52 53° E
Starlink Q 2.8 18:12:16 10° WNW 18:15:29 79° NNE 18:16:03 57° E
Starlink P 2.8 18:14:22 10° WNW 18:17:36 81° NNE 18:18:04 61° E
ISS -3.8 18:15:19 10° W 18:18:42 85° NNW 18:19:20 57° ENE
SKYMED 2 3.8 18:15:04 10° N 18:19:24 71° WNW 18:23:44 10° SSW
Okean-O 4.4 18:15:28 10° SSW 18:19:30 34° W 18:23:34 10° NNW
Starlink U 2.8 18:16:28 10° WNW 18:19:41 82° NNE 18:20:05 65° E
Cosmos 407 Rocket 3.5 18:15:18 10° NNW 18:20:34 60° ENE 18:24:47 16° SE
Cosmos 1190 Rocket 4.1 18:16:09 10° NNW 18:21:23 54° ENE 18:24:42 22° SE
Starlink B 2.8 18:18:35 10° WNW 18:21:49 84° NNE 18:22:08 70° E
Cosmos 1869 3.5 18:18:03 10° N 18:21:55 45° ENE 18:22:05 45° E
CZ-2D R/B 3.2 18:18:40 10° SSE 18:22:30 86° WSW 18:26:24 10° NNW
Cosmos 1939 Rocket 2.9 18:23:00 10° S 18:26:57 78° WSW 18:31:01 10° NNW
NOSS 3-2 (A) 4.3 18:23:42 10° S 18:28:17 27° ESE 18:28:17 27° ESE
SL-16 R/B 4.0 18:24:24 10° NW 18:29:23 32° WSW 18:34:21 10° SSW
Starlink AS 2.9 18:27:03 10° WNW 18:29:42 70° W 18:29:42 70° W
Starlink BA 2.9 18:27:17 10° WNW 18:29:55 69° W 18:29:55 69° W
Starlink AU 2.9 18:27:29 10° WNW 18:30:07 68° W 18:30:07 68° W
Starlink AT 2.9 18:27:43 10° WNW 18:30:21 68° W 18:30:21 68° W
Starlink BB 3.0 18:27:57 10° WNW 18:30:34 67° W 18:30:34 67° W
Starlink BC 3.0 18:28:10 10° WNW 18:30:46 67° W 18:30:46 67° W
Starlink BK 3.0 18:28:24 10° WNW 18:30:59 67° W 18:30:59 67° W
Starlink AY 3.0 18:28:37 10° WNW 18:31:13 66° W 18:31:13 66° W
Starlink AW 3.0 18:28:49 10° WNW 18:31:24 65° W 18:31:24 65° W
Starlink BJ 3.0 18:29:04 10° WNW 18:31:39 65° W 18:31:39 65° W
Starlink AV 3.0 18:29:19 10° WNW 18:31:53 64° W 18:31:53 64° W
Starlink BD 3.1 18:29:32 10° WNW 18:32:05 64° W 18:32:05 64° W
Starlink BE 3.0 18:29:43 10° WNW 18:32:19 65° W 18:32:19 65° W
Starlink BM 3.1 18:30:00 10° WNW 18:32:31 62° W 18:32:31 62° W
Starlink AX 3.1 18:30:14 10° WNW 18:32:45 62° W 18:32:45 62° W
Starlink BH 3.1 18:30:25 10° WNW 18:32:56 61° W 18:32:56 61° W
Starlink AZ 3.1 18:30:38 10° WNW 18:33:09 61° W 18:33:09 61° W
Cosmos 676 Rocket 4.3 18:28:38 10° NNW 18:33:46 44° ENE 18:34:34 41° E
Starlink BG 3.2 18:30:52 10° WNW 18:33:22 60° W 18:33:22 60° W
Starlink BF 3.2 18:31:05 10° WNW 18:33:35 60° W 18:33:35 60° W
Starlink BL 3.1 18:31:17 10° WNW 18:33:49 61° W 18:33:49 61° W
Starlink AH 3.2 18:31:31 10° WNW 18:34:00 59° W 18:34:00 59° W
Starlink AC 3.2 18:31:46 10° WNW 18:34:14 58° W 18:34:14 58° W
Starlink X 3.2 18:31:59 10° WNW 18:34:27 58° W 18:34:27 58° W
Starlink AE 3.2 18:32:09 10° WNW 18:34:41 60° W 18:34:41 60° W
Starlink AQ 3.2 18:32:18 10° WNW 18:34:46 58° W 18:34:46 58° W
Cosmos 1727 Rocket 4.5 18:29:14 10° NNW 18:35:20 62° W 18:41:23 10° S
Starlink Z 3.3 18:32:25 10° WNW 18:34:52 57° W 18:34:52 57° W
Starlink AK 3.3 18:32:40 10° WNW 18:35:06 57° W 18:35:06 57° W
Starlink AL 3.3 18:32:54 10° WNW 18:35:20 56° W 18:35:20 56° W
Starlink AD 3.3 18:33:08 10° WNW 18:35:33 56° W 18:35:33 56° W
YAOGAN 1 3.5 18:31:58 10° S 18:36:10 50° W 18:40:25 10° NNW
Starlink Y 3.4 18:33:34 10° WNW 18:35:58 55° W 18:35:58 55° W
Cosmos 44 4.0 18:32:18 10° WSW 18:36:35 42° NW 18:38:46 24° NNE
Starlink AG 3.4 18:33:47 10° WNW 18:36:11 54° W 18:36:11 54° W
Starlink W 3.3 18:33:57 10° WNW 18:36:23 56° W 18:36:23 56° W
Starlink D 3.1 18:33:41 10° WNW 18:36:42 74° W 18:36:42 74° W
Starlink AJ 3.4 18:34:14 10° WNW 18:36:36 54° W 18:36:36 54° W
Cosmos 2227 4.3 18:31:49 10° S 18:37:22 52° ESE 18:39:03 39° ENE
Starlink AM 3.4 18:34:42 10° WNW 18:37:03 52° W 18:37:03 52° W
Starlink AP 3.4 18:34:54 10° WNW 18:37:15 52° W 18:37:15 52° W
Starlink AA 3.5 18:35:10 10° WNW 18:37:30 52° W 18:37:30 52° W
Starlink AF 3.5 18:35:21 10° WNW 18:37:41 51° W 18:37:41 51° W
Starlink AB 3.5 18:35:36 10° WNW 18:37:55 51° W 18:37:55 51° W
Starlink AN 3.5 18:35:48 10° WNW 18:38:07 51° W 18:38:07 51° W
Starlink S 3.2 18:35:54 10° WNW 18:38:50 69° W 18:38:50 69° W
Cosmos 2082 4.4 18:34:36 10° SW 18:40:06 53° NW 18:44:54 14° NNE
Starlink C 3.3 18:38:04 10° WNW 18:40:55 64° W 18:40:55 64° W
SJ-11-01 4.2 18:39:25 33° SE 18:41:27 63° ENE 18:46:07 10° N
Cosmos 1603 3.8 18:37:10 10° NNW 18:42:52 77° WSW 18:48:27 10° SSE
Starlink E 3.4 18:40:17 10° WNW 18:43:03 60° W 18:43:03 60° W
Ariane Rocket 2.8 18:40:03 10° SSE 18:45:06 80° ENE 18:50:14 10° NNW
Cosmos 2297 Rocket 3.7 18:40:18 10° WSW 18:45:22 33° NW 18:50:25 10° NNE
Starlink J 3.6 18:42:30 10° WNW 18:45:12 56° W 18:45:12 56° W
ARGOS 3.3 18:46:23 47° ENE 18:46:23 47° ENE 18:51:31 10° N
Starlink V 3.7 18:44:42 10° WNW 18:47:19 52° W 18:47:19 52° W
ERBS 4.0 18:47:15 10° WNW 18:49:39 26° NNW 18:49:39 26° NNW
Starlink H 3.9 18:46:57 10° WNW 18:49:28 49° W 18:49:28 49° W
Cosmos 2263 Rocket 2.2 18:45:41 10° S 18:51:02 51° ESE 18:51:06 51° ESE
Starlink F 4.0 18:49:11 10° WNW 18:51:38 45° W 18:51:38 45° W
Starlink G 4.2 18:51:25 10° WNW 18:53:47 43° W 18:53:47 43° W
ADEOS Rocket 3.2 18:48:49 10° NNE 18:55:35 75° ESE 19:03:00 10° S
Starlink L 4.3 18:53:39 10° WNW 18:55:55 40° W 18:55:55 40° W
CZ-2C R/B 3.4 18:57:36 52° ENE 18:57:36 52° ENE 19:02:52 10° N
Cosmos 614 Rocket 4.3 18:53:13 10° NNW 18:58:24 67° WSW 19:02:55 14° S
Cosmos 2227 Rocket 3.8 18:53:58 10° WSW 18:58:54 30° NW 19:03:28 12° NNE
Starlink A 4.4 18:55:54 10° WNW 18:58:05 37° W 18:58:05 37° W
SL-24 R/B 4.3 19:02:50 71° ENE 19:02:50 71° ENE 19:08:14 10° N
Cosmos 2056 Rocket 4.1 19:00:10 10° S 19:03:46 41° SSE 19:03:46 41° SSE
Cosmos 2084 4.1 19:03:35 10° NW 19:06:58 49° NNW 19:06:58 49° NNW
USA 238 DEB 3.7 19:02:12 10° SSW 19:08:41 55° ESE 19:08:59 55° ESE
USA 238 3.7 19:02:20 10° SSW 19:08:48 55° ESE 19:09:02 54° ESE
CZ-4 R/B 4.2 19:06:14 10° SW 19:09:14 19° W 19:12:16 10° NW
Cosmos 1943 3.6 19:06:45 10° NW 19:12:20 61° WSW 19:15:42 24° S
Cosmos 1821 Rocket 4.2 19:08:47 10° SSW 19:15:08 72° WNW 19:21:26 10° N
Timation 1 Rocket 4.2 19:13:47 10° SSW 19:19:34 75° SE 19:19:34 75° SE
Cosmos 44 Rocket 3.6 19:18:27 10° SW 19:22:39 63° W 19:22:39 63° W
Cosmos 1140 Rocket 3.9 19:20:01 10° NNW 19:25:12 62° WSW 19:26:09 52° SSW
SL-8 R/B 4.4 19:25:08 10° W 19:28:50 49° WSW 19:28:50 49° WSW
H-2A R/B 2.4 19:36:15 60° WNW 19:36:15 60° WNW 19:40:46 10° NNW
Cosmos 2123 Rocket 4.4 19:32:56 10° NNW 19:39:09 61° W 19:45:18 10° S
ATLAS 5 CENTAUR R/B 3.8 19:42:01 10° NW 19:44:42 23° N 19:44:42 23° N
Cosmos 1934 Rocket 4.2 19:40:32 10° SSW 19:46:33 66° WNW 19:52:36 10° N
Cosmos 2082 Rocket 4.4 19:43:39 10° N 19:44:58 14° N 19:44:58 14° N
USA 267 3.6 19:51:11 53° N 19:51:31 54° N 19:57:50 10° W
ISS -0.1 19:52:13 10° W 19:52:18 10° W 19:52:18 10° W
Cosmos 2263 Rocket 4.1 20:30:06 10° WSW 20:32:52 25° W 20:32:52 25° W
